KF5CFW Weather Reports


time (UTC)temp
F
wind
direction
speed
knots
gust
knots
rain 1hr
in
rain 24hr
in
rain mn
in
humidity
%
barometer
mb
20260904111554 79 136 0.0 0.0 0.00 0.00 0.00 1 1012.1
20260904110045 79 136 0.0 0.0 0.00 0.00 0.00 1 1011.9
20260904104539 79 136 0.0 0.9 0.00 0.00 0.00 1 1011.8
20260904103037 79 136 0.0 0.0 0.00 0.00 0.00 1 1011.7
20260904101529 79 137 0.0 0.0 0.00 0.00 0.00 1 1011.6
20260904100025 79 69 0.0 0.0 0.00 0.00 0.00 1 1011.7
20260904094520 79 68 0.0 0.9 0.00 0.00 0.00 1 1011.7
20260904093016 79 122 0.0 0.0 0.00 0.00 0.00 1 1011.5
20260904091512 79 118 0.0 0.0 0.00 0.00 0.00 1 1011.6
20260904090008 79 129 0.0 0.0 0.00 0.00 0.00 1 1011.6
20260904084504 79 130 0.0 0.9 0.00 0.00 0.00 1 1011.6
20260904083101 79 163 0.0 0.9 0.00 0.00 0.00 1 1011.4
20260904081555 79 152 0.0 0.0 0.00 0.00 0.00 1 1011.4
20260904080050 79 165 0.0 0.0 0.00 0.00 0.00 1 1011.3
20260904074557 79 166 0.0 0.9 0.00 0.00 0.00 1 1011.4
20260904073043 80 167 0.0 0.9 0.00 0.00 0.00 1 1011.4
20260904071537 80 130 0.0 0.9 0.00 0.00 0.00 1 1011.7
20260904070033 80 148 0.0 0.9 0.00 0.00 0.00 5 1011.7
20260904064532 80 145 0.0 0.9 0.00 0.00 0.00 6 1011.8
20260904063043 80 155 0.0 0.9 0.00 0.00 0.00 8 1011.7
20260904061532 80 156 0.0 0.9 0.00 0.00 0.00 10 1011.8
20260904060036 80 132 0.0 0.0 0.00 0.00 0.00 12 1011.8
20260904054527 80 111 0.0 0.9 0.00 0.00 0.00 16 1011.8
20260904053031 80 160 0.0 0.9 0.00 0.00 0.00 21 1011.7
20260904051520 81 170 0.0 0.9 0.00 0.00 0.00 28 1011.7
20260904050017 81 165 0.0 0.9 0.00 0.00 0.00 36 1011.5
20260904044529 81 104 0.0 0.9 0.00 0.00 0.00 43 1011.7
20260904043008 81 132 0.0 0.9 0.00 0.00 0.00 50 1011.6
20260904041507 81 156 0.0 0.9 0.00 0.00 0.00 54 1011.7
20260904040007 81 87 0.0 0.9 0.00 0.00 0.00 55 1011.7
20260904034507 82 160 0.0 0.9 0.00 0.00 0.00 54 1011.6
20260904033005 82 138 0.0 0.0 0.00 0.00 0.00 53 1011.6
20260904031505 82 112 0.0 0.9 0.00 0.00 0.00 52 1011.6
20260904030005 83 136 0.0 0.9 0.00 0.00 0.00 50 1011.3
20260904024501 83 129 0.0 0.9 0.00 0.00 0.00 51 1011.2
20260904023106 83 159 0.0 0.0 0.00 0.00 0.00 51 1011.0
20260904021552 84 168 0.0 0.9 0.00 0.00 0.00 55 1010.8
20260904020048 84 134 0.0 3.5 0.00 0.00 0.00 57 1010.5
20260904014546 85 152 0.0 1.7 0.00 0.00 0.00 55 1010.1
20260904013039 86 158 0.0 0.9 0.00 0.00 0.00 57 1009.9
20260904011541 86 34 0.0 2.6 0.00 0.00 0.00 59 1009.7
20260904010049 87 135 0.0 1.7 0.00 0.00 0.00 58 1009.6
20260904004531 87 164 0.0 0.9 0.00 0.00 0.00 58 1009.7
20260904003025 88 157 0.0 1.7 0.00 0.00 0.00 58 1009.5
20260904001520 88 156 0.0 1.7 0.00 0.00 0.00 58 1009.6
20260904000019 89 158 0.0 0.9 0.00 0.00 0.00 58 1009.5
20260903234513 90 159 0.0 0.9 0.00 0.00 0.00 57 1009.3
20260903233008 91 172 0.0 2.6 0.00 0.00 0.00 56 1009.2
20260903231503 92 151 0.0 0.9 0.00 0.00 0.00 55 1009.1
20260903224606 95 65 0.0 1.7 0.00 0.00 0.00 53 1009.0
20260903223051 95 155 0.0 1.7 0.00 0.00 0.00 53 1009.0
20260903221546 96 148 0.0 2.6 0.00 0.00 0.00 51 1009.0
20260903220051 97 167 0.0 2.6 0.00 0.00 0.00 50 1008.9
20260903214541 97 101 0.0 0.9 0.00 0.00 0.00 51 1009.0
20260903213039 96 166 0.0 2.6 0.00 0.00 0.00 52 1009.2
20260903211555 94 151 0.0 0.9 0.00 0.00 0.00 54 1009.3
20260903210024 92 163 0.0 2.6 0.00 0.00 0.00 57 1009.5
20260903204520 92 159 0.0 0.9 0.00 0.00 0.00 57 1009.9
20260903203016 92 129 0.0 1.7 0.00 0.00 0.00 58 1009.9
20260903201511 93 168 0.0 3.5 0.00 0.00 0.00 57 1010.1
20260903200007 93 67 0.0 0.9 0.00 0.00 0.00 57 1010.1
20260903194502 94 203 0.0 1.7 0.00 0.00 0.00 56 1010.3
20260903193058 93 194 0.0 1.7 0.00 0.00 0.00 57 1010.4
20260903191553 92 60 0.0 2.6 0.00 0.00 0.00 58 1010.5
20260903190049 91 210 0.0 2.6 0.00 0.00 0.00 58 1010.8
20260903184545 90 160 0.0 2.6 0.00 0.00 0.00 58 1011.1
20260903183041 89 134 0.0 3.5 0.00 0.00 0.00 57 1011.3
20260903181535 90 146 0.0 2.6 0.00 0.00 0.00 58 1011.4
20260903180033 91 148 0.0 3.5 0.00 0.00 0.00 58 1011.5
20260903174544 89 162 0.0 2.6 0.00 0.00 0.00 57 1011.6
20260903173026 89 150 0.0 2.6 0.00 0.00 0.00 55 1011.9
20260903171518 88 139 0.0 1.7 0.00 0.00 0.00 53 1011.9
20260903170014 87 160 0.0 1.7 0.00 0.00 0.00 48 1012.0
20260903164509 86 161 0.0 1.7 0.00 0.00 0.00 47 1011.9
20260903163005 86 155 0.0 1.7 0.00 0.00 0.00 44 1012.0
20260903161600 86 151 0.0 0.9 0.00 0.00 0.00 42 1012.1
20260903160056 85 278 0.0 0.9 0.00 0.00 0.00 39 1012.1
20260903154556 84 49 0.0 0.9 0.00 0.00 0.00 28 1012.2
20260903153053 83 153 0.0 0.9 0.00 0.00 0.00 16 1012.1
20260903151550 82 167 0.0 0.9 0.00 0.00 0.00 8 1012.1
20260903150039 81 106 0.0 0.0 0.00 0.00 0.00 3 1012.0
20260903144535 81 155 0.0 0.0 0.00 0.00 0.00 5 1012.3
20260903143029 81 158 0.0 0.9 0.00 0.00 0.00 7 1012.4
20260903141524 81 167 0.0 0.9 0.00 0.00 0.00 5 1012.1
20260903140021 80 168 0.0 0.9 0.00 0.00 0.00 1 1012.1
20260903134517 79 108 0.0 0.0 0.00 0.00 0.00 1 1012.1
20260903133012 79 152 0.0 0.9 0.00 0.00 0.00 1 1012.0
20260903131511 78 143 0.0 0.0 0.00 0.00 0.00 1 1011.9
20260903130008 78 102 0.0 0.9 0.00 0.00 0.00 1 1011.9
20260903124504 78 101 0.0 0.9 0.00 0.00 0.00 1 1012.0
20260903123059 78 50 0.0 0.0 0.00 0.00 0.00 1 1011.7
20260903121554 77 49 0.0 0.9 0.00 0.00 0.00 1 1011.7
20260903120049 78 113 0.0 0.0 0.00 0.00 0.00 1 1011.5
20260903114546 78 113 0.0 0.0 0.00 0.00 0.00 3 1011.4
20260903113043 78 112 0.0 0.0 0.00 0.00 0.00 6 1011.4